Location: Henham
(51.9333°N, 0.2500°E)
Time: 08:41:50
(UTC+00:00)

STARLINK-79 - Pass Details

Date: 23 October 2019
Orbit: 548 x 551 km, 53.0° (Epoch: 19 November)

Event Time Altitude Azimuth Distance (km) Brightness Sun altitude
Rises 19:16:05 0° 286° (WNW) 2,721 8.6 -23.3°
Reaches altitude 10° 19:18:20 10° 284° (WNW) 1,826 7.4 -23.6°
Enters shadow 19:22:09 67° 237° (WSW) 600 3.8 -24.2°
